Kankakee, IL

8:46 AM CDT on September 26, 2017 (GMT -0500)
Greater Kankakee

Weather History for KIKK - March, 2012

Change the Weather History Date:

Saturday, March 31, 2012

  Actual Average Record
Temperature  
Mean Temperature 48 °F -  
Max Temperature 55 °F 53 °F 84 °F (1986)
Min Temperature 40 °F 35 °F 17 °F (1987)
Degree Days  
Heating Degree Days 18    
Moisture  
Dew Point 38 °F    
Average Humidity 78    
Maximum Humidity 87    
Minimum Humidity 59    
Precipitation  
Precipitation 0.00 in - - ()
Sea Level Pressure  
Sea Level Pressure 29.94 in    
Wind  
Wind Speed 8 mph (ENE)    
Max Wind Speed 13 mph    
Max Gust Speed 16 mph    
Visibility 10 miles    
Events      
Averages and records for this station are not official NWS values.
T = Trace of Precipitation, MM = Missing Value Source: NWS Daily Summary

Daily Weather History Graph

Daily Weather History Graph

Search for Another Location

Airport or City:

Trip Planner

Search our weather history database for the weather conditions in past years. The results will help you decide how hot, cold, wet, or windy it might be!

Date:

Astronomy

Mar. 31, 2012 Rise Set
Actual Time 6:35 AM CDT 7:15 PM CDT
Civil Twilight 6:07 AM CDT 7:43 PM CDT
Nautical Twilight 5:35 AM CDT 8:16 PM CDT
Astronomical Twilight 5:01 AM CDT 8:50 PM CDT
Moon 12:40 PM CDT (3/31) 2:35 AM CDT (3/31)
Length of Visible Light 13h 35m
Length of Day
12h 40m
First Quarter, 59% of the Moon is Illuminated
Mar 31
First Quarter
Apr 6
Full
Apr 13
Last Quarter
Apr 21
New
Apr 29
First Quarter

Hourly Weather History & Observations

Time (CDT) Temp. Windchill Dew Point Humidity Pressure Visibility Wind Dir Wind Speed Gust Speed Precip Events Conditions
12:15 AM 42.4 °F 36.5 °F 37.4 °F 82% 29.92 in 10.0 mi North 10.4 mph - N/A   Overcast
12:35 AM 42.3 °F 36.8 °F 36.9 °F 81% 29.93 in 10.0 mi North 9.2 mph - N/A   Overcast
12:55 AM 42.3 °F 37.3 °F 37.0 °F 82% 29.94 in 10.0 mi NNE 8.1 mph - N/A   Overcast
1:15 AM 42.3 °F 35.9 °F 36.7 °F 81% 29.94 in 10.0 mi NNE 11.5 mph - N/A   Overcast
1:35 AM 42.1 °F 37.1 °F 37.0 °F 82% 29.94 in 10.0 mi NNE 8.1 mph - N/A   Overcast
1:55 AM 41.9 °F 35.4 °F 36.7 °F 82% 29.94 in 10.0 mi NNE 11.5 mph 16.1 mph N/A   Overcast
2:15 AM 41.7 °F 37.3 °F 36.9 °F 83% 29.94 in 10.0 mi North 6.9 mph - N/A   Overcast
2:35 AM 41.5 °F 35.9 °F 37.0 °F 84% 29.95 in 10.0 mi NNE 9.2 mph - N/A   Overcast
2:55 AM 41.9 °F 37.5 °F 37.0 °F 83% 29.96 in 10.0 mi North 6.9 mph - N/A   Overcast
3:15 AM 41.4 °F 35.2 °F 36.7 °F 83% 29.94 in 10.0 mi NNE 10.4 mph - N/A   Overcast
3:35 AM 41.5 °F 36.4 °F 37.0 °F 84% 29.95 in 10.0 mi NE 8.1 mph - N/A   Overcast
3:55 AM 41.4 °F 36.2 °F 36.9 °F 84% 29.96 in 10.0 mi NNE 8.1 mph - N/A   Overcast
4:15 AM 41.2 °F 34.5 °F 37.0 °F 85% 29.95 in 10.0 mi NE 11.5 mph - N/A   Overcast
4:35 AM 41.2 °F 36.0 °F 37.0 °F 85% 29.94 in 10.0 mi NE 8.1 mph - N/A   Overcast
4:55 AM 41.2 °F 35.5 °F 36.9 °F 85% 29.95 in 10.0 mi NE 9.2 mph - N/A   Overcast
5:15 AM 41.0 °F 34.3 °F 37.0 °F 86% 29.95 in 10.0 mi ENE 11.5 mph - N/A   Overcast
5:35 AM 41.0 °F 33.9 °F 36.9 °F 85% 29.96 in 10.0 mi NE 12.7 mph - N/A   Overcast
5:55 AM 41.0 °F 35.8 °F 37.0 °F 86% 29.95 in 10.0 mi NNE 8.1 mph - N/A   Overcast
6:15 AM 40.5 °F 33.2 °F 36.7 °F 86% 29.95 in 10.0 mi ENE 12.7 mph - N/A   Overcast
6:35 AM 40.1 °F 33.6 °F 36.5 °F 87% 29.95 in 10.0 mi NE 10.4 mph - N/A   Overcast
6:55 AM 40.5 °F 34.1 °F 36.7 °F 86% 29.96 in 10.0 mi NE 10.4 mph - N/A   Overcast
7:15 AM 40.3 °F 35.5 °F 36.5 °F 86% 29.97 in 10.0 mi NE 6.9 mph - N/A   Overcast
7:35 AM 40.5 °F 37.3 °F 36.5 °F 86% 29.97 in 10.0 mi NNE 4.6 mph - N/A   Overcast
7:55 AM 40.6 °F 34.8 °F 36.7 °F 86% 29.97 in 10.0 mi East 9.2 mph - N/A   Overcast
8:15 AM 40.5 °F 35.8 °F 36.7 °F 86% 29.97 in 10.0 mi NE 6.9 mph - N/A   Overcast
8:35 AM 41.0 °F 35.2 °F 36.9 °F 85% 29.97 in 10.0 mi NE 9.2 mph - N/A   Overcast
8:55 AM 41.0 °F 36.4 °F 36.9 °F 85% 29.97 in 10.0 mi NNE 6.9 mph - N/A   Overcast
9:15 AM 41.2 °F 35.0 °F 37.2 °F 86% 29.97 in 10.0 mi ENE 10.4 mph - N/A   Overcast
9:35 AM 41.4 °F 36.2 °F 37.0 °F 85% 29.97 in 10.0 mi NNE 8.1 mph - N/A   Overcast
9:55 AM 41.5 °F 36.4 °F 37.4 °F 85% 29.97 in 10.0 mi ENE 8.1 mph - N/A   Overcast
10:15 AM 41.9 °F 40.0 °F 37.4 °F 84% 29.98 in 10.0 mi NE 3.5 mph - N/A   Unknown
10:35 AM 42.8 °F 39.3 °F 38.1 °F 84% 29.99 in 10.0 mi NE 5.8 mph - N/A   Unknown
10:55 AM 43.3 °F 39.2 °F 38.3 °F 82% 29.99 in 10.0 mi ENE 6.9 mph - N/A   Unknown
11:15 AM 43.7 °F 39.7 °F 38.5 °F 82% 29.98 in 10.0 mi ENE 6.9 mph - N/A   Unknown
11:35 AM 43.7 °F 42.1 °F 37.8 °F 80% 29.99 in 10.0 mi NNE 3.5 mph - N/A   Unknown
11:55 AM 44.1 °F 40.1 °F 38.5 °F 81% 29.98 in 10.0 mi East 6.9 mph - N/A   Unknown
12:15 PM 44.4 °F 41.2 °F 38.8 °F 81% 29.98 in 10.0 mi NE 5.8 mph - N/A   Unknown
12:35 PM 45.0 °F 42.6 °F 39.0 °F 80% 29.97 in 10.0 mi ENE 4.6 mph - N/A   Unknown
12:55 PM 45.7 °F 41.5 °F 38.8 °F 77% 29.97 in 10.0 mi ENE 8.1 mph - N/A   Unknown
1:15 PM 46.2 °F 44.1 °F 38.8 °F 75% 29.97 in 10.0 mi East 4.6 mph - N/A   Unknown
1:35 PM 46.4 °F 43.5 °F 39.2 °F 76% 29.96 in 10.0 mi ESE 5.8 mph - N/A   Unknown
1:55 PM 47.8 °F - 39.2 °F 72% 29.95 in 10.0 mi Calm Calm - N/A   Unknown
2:15 PM 49.5 °F - 40.3 °F 71% 29.94 in 10.0 mi ESE 3.5 mph - N/A   Unknown
2:35 PM 50.0 °F - 41.0 °F 71% 29.93 in 10.0 mi SE 5.8 mph - N/A   Unknown
2:55 PM 50.9 °F - 40.8 °F 68% 29.93 in 10.0 mi ESE 4.6 mph - N/A   Unknown
3:15 PM 50.9 °F - 40.3 °F 67% 29.93 in 10.0 mi ESE 5.8 mph - N/A   Unknown
3:35 PM 50.9 °F - 40.5 °F 67% 29.91 in 10.0 mi ESE 5.8 mph - N/A   Unknown
3:55 PM 51.8 °F - 40.8 °F 66% 29.91 in 10.0 mi East 5.8 mph - N/A   Unknown
4:15 PM 52.9 °F - 41.5 °F 65% 29.90 in 10.0 mi ENE 8.1 mph - N/A   Unknown
4:35 PM 52.7 °F - 41.2 °F 65% 29.90 in 10.0 mi East 4.6 mph - N/A   Unknown
4:55 PM 53.8 °F - 41.5 °F 63% 29.91 in 10.0 mi East 6.9 mph - N/A   Unknown
5:15 PM 55.0 °F - 41.4 °F 60% 29.90 in 10.0 mi East 6.9 mph - N/A   Unknown
5:35 PM 55.6 °F - 41.5 °F 59% 29.89 in 10.0 mi East 9.2 mph - N/A   Unknown
5:55 PM 54.9 °F - 41.0 °F 60% 29.89 in 10.0 mi East 9.2 mph - N/A   Unknown
6:15 PM 54.5 °F - 41.4 °F 61% 29.88 in 10.0 mi East 9.2 mph - N/A   Unknown
6:35 PM 54.3 °F - 41.0 °F 61% 29.89 in 10.0 mi East 8.1 mph - N/A   Unknown
6:55 PM 53.2 °F - 41.0 °F 63% 29.89 in 10.0 mi East 6.9 mph - N/A   Unknown
7:15 PM 53.1 °F - 41.0 °F 64% 29.88 in 10.0 mi ESE 8.1 mph - N/A   Unknown
7:35 PM 52.9 °F - 41.0 °F 64% 29.89 in 10.0 mi ESE 6.9 mph - N/A   Unknown
7:55 PM 52.7 °F - 40.8 °F 64% 29.88 in 10.0 mi ESE 5.8 mph - N/A   Unknown
8:15 PM 51.8 °F - 41.0 °F 67% 29.88 in 10.0 mi ESE 5.8 mph - N/A   Unknown
8:35 PM 51.1 °F - 41.2 °F 69% 29.89 in 10.0 mi ESE 5.8 mph - N/A   Unknown
8:55 PM 50.9 °F - 41.4 °F 70% 29.88 in 10.0 mi ESE 6.9 mph - N/A   Unknown
9:15 PM 50.4 °F - 41.2 °F 71% 29.88 in 10.0 mi ESE 6.9 mph - N/A   Unknown
9:35 PM 50.0 °F - 41.5 °F 73% 29.87 in 10.0 mi ESE 6.9 mph - N/A   Unknown
9:55 PM 49.6 °F - 41.4 °F 73% 29.87 in 10.0 mi ESE 6.9 mph - N/A   Unknown
10:15 PM 49.6 °F - 41.4 °F 73% 29.86 in 10.0 mi ESE 8.1 mph - N/A   Unknown
10:35 PM 49.6 °F - 41.4 °F 73% 29.86 in 10.0 mi ESE 6.9 mph - N/A   Unknown
10:55 PM 50.0 °F - 41.0 °F 71% 29.85 in 10.0 mi ESE 8.1 mph - N/A   Unknown
11:15 PM 48.7 °F - 41.4 °F 76% 29.84 in 10.0 mi ESE 8.1 mph - N/A   Unknown
11:35 PM 48.4 °F - 41.2 °F 76% 29.83 in 10.0 mi ESE 6.9 mph - N/A   Unknown
11:55 PM 48.4 °F - 41.4 °F 77% 29.83 in 10.0 mi ESE 4.6 mph - N/A   Unknown